SCP
0 0 0 0 0 0 0 0 0 0 0 0 0 0 0 0 0 0 0 0 0 0 0 0 0 0 0 0 0 0 0 0 0 0 0 0 0 0 0 0 0 0 0 0
0 0 0 0 0 0 0 0 0 0 0 0 0 0 0 0 0 0 0 0 0 0 0 0 0 0 0 0 0 0 0 0 0 0 0 0 0 0 0 0 0 0 0 0
0 0 0 0 0 0 0 0 0 0 0 0 0 0 0 0 0 0 0 0 0 0 0 0 0 0 0 0 0 0 0 0 0 0 0 0 0 0 0 0 0 0 0 0
0 0 0 0 0 0 0 0 0 0 0 0 0 0 0 0 0 0 0 0 0 0 0 0 0 0 0 0 0 0 0 0 0 0 0 0 0 0 0 0 0 0 0 0
0 0 0 0 0 0 0 0 0 0 0 0 0 0 0 0 0 0 0 0 0 0 0 0 0 0 0 0 0 0 0 0 0 0 0 0 0 0 0 0 0 0 0 0
0 0 0 0 0 0 0 0 0 0 0 0 0 0 0 0 0 0 0 0 0 0 0 0 0 0 0 0 0 0 0 0 0 0 0 0 0 0 0 0 0 0 0 0
0 0 0 0 0 0 0 0 0 0 0 0 0 0 0 0 0 0 0 0 0 0 0 0 0 0 0 0 0 0 0 0 0 0 0 0 0 0 0 0 0 0 0 0
0 0 0 0 0 0 0 0 0 0 0 0 0 0 0 0 0 0 0 0 0 0 0 0 0 0 0 0 0 0 0 0 0 0 0 0 0 0 0 0 0 0 0 0
0 0 0 0 0 0 0 0 0 0 0 0 0 0 0 0 0 0 0 0 0 0 0 0 0 0 0 0 0 0 0 0 0 0 0 0 0 0 0 0 0 0 0 0
0 0 0 0 0 0 0 0 0 0 0 0 0 0 0 0 0 0 0 0 0 0 0 0 0 0 0 0 0 0 0 0 0 0 0 0 0 0 0 0 0 0 0 0
0 0 0 0 0 0 0 0 0 0 0 0 0 0 0 0 0 0 0 0 0 0 0 0 0 0 0 0 0 0 0 0 0 0 0 0 0 0 0 0 0 0 0 0
0 0 0 0 0 0 0 0 0 0 0 0 0 0 0 0 0 0 0 0 0 0 0 0 0 0 0 0 0 0 0 0 0 0 0 0 0 0 0 0 0 0 0 0
0 0 0 0 0 0 0 0 0 0 0 0 0 0 0 0 0 0 0 0 0 0 0 0 0 0 0 0 0 0 0 0 0 0 0 0 0 0 0 0 0 0 0 0
0 0 0 0 0 0 0 0 0 0 0 0 0 0 0 0 0 0 0 0 0 0 0 0 0 0 0 0 0 0 0 0 0 0 0 0 0 0 0 0 0 0 0 0
0 0 0 0 0 0 0 0 0 0 0 0 0 0 0 0 0 0 0 0 0 0 0 0 0 0 0 0 0 0 0 0 0 0 0 0 0 0 0 0 0 0 0 0
0 0 0 0 0 0 0 0 0 0 0 0 0 0 0 0 0 0 0 0 0 0 0 0 0 0 0 0 0 0 0 0 0 0 0 0 0 0 0 0 0 0 0 0
0 0 0 0 0 0 0 0 0 0 0 0 0 0 0 0 0 0 0 0 0 0 0 0 0 0 0 0 0 0 0 0 0 0 0 0 0 0 0 0 0 0 0 0
0 0 0 0 0 0 0 0 0 0 0 0 0 0 0 0 0 0 0 0 0 0 0 0 0 0 0 0 0 0 0 0 0 0 0 0 0 0 0 0 0 0 0 0
0 0 0 0 0 0 0 0 0 0 0 0 0 0 0 0 0 0 0 0 0 0 0 0 0 0 0 0 0 0 0 0 0 0 0 0 0 0 0 0 0 0 0 0
0 0 0 0 0 0 0 0 0 0 0 0 0 0 0 0 0 0 0 0 0 0 0 0 0 0 0 0 0 0 0 0 0 0 0 0 0 0 0 0 0 0 0 0
0 0 0 0 0 0 0 0 0 0 0 0 0 0 0 0 0 0 0 0 0 0 0 0 0 0 0 0 0 0 0 0 0 0 0 0 0 0 0 0 0 0 0 0
0 0 0 0 0 0 0 0 0 0 0 0 0 0 0 0 0 0 0 0 0 0 0 0 0 0 0 0 0 0 0 0 0 0 0 0 0 0 0 0 0 0 0 0
0 0 0 0 0 0 0 0 0 0 0 0 0 0 0 0 0 0 0 0 0 0 0 0 0 0 0 0 0 0 0 0 0 0 0 0 0 0 0 0 0 0 0 0
0 0 0 0 0 0 0 0 0 0 0 0 0 0 0 0 0 0 0 0 0 0 0 0 0 0 0 0 0 0 0 0 0 0 0 0 0 0 0 0 0 0 0 0
0 0 0 0 0 0 0 0 0 0 0 0 0 0 0 0 0 0 0 0 0 0 0 0 0 0 0 0 0 0 0 0 0 0 0 0 0 0 0 0 0 0 0 0
0 0 0 0 0 0 0 0 0 0 0 0 0 0 0 0 0 0 0 0 0 0 0 0 0 0 0 0 0 0 0 0 0 0 0 0 0 0 0 0 0 0 0 0
0 0 0 0 0 0 0 0 0 0 0 0 0 0 0 0 0 0 0 0 0 0 0 0 0 0 0 0 0 0 0 0 0 0 0 0 0 0 0 0 0 0 0 0
Wind_Speed
5 4 3 3 6 7 9 9 7 9 10 13 14 15 15 14 14 13 12 11 11 11 10 9 8 8 8 8 8 9 10 10 9 8 7 6 6 5 4 4 5 4 5 6
2 2 2 4 6 9 12 12 12 14 9 11 14 13 14 14 14 14 12 12 11 10 9 8 7 7 8 7 7 8 8 9 8 7 6 6 5 5 5 5 5 5 5 6
2 2 3 5 10 12 13 11 8 8 9 14 14 13 12 13 13 13 13 12 11 9 8 7 6 6 7 7 6 7 7 8 7 7 6 5 6 5 5 5 4 4 5 6
2 1 3 5 7 12 14 13 13 15 14 14 14 12 11 11 12 12 12 11 10 8 7 6 6 5 5 6 6 6 7 7 7 6 6 5 5 5 4 4 3 3 4 5
2 2 6 5 5 5 9 10 12 15 16 16 17 16 11 10 11 11 11 10 9 7 6 6 5 5 5 5 6 6 7 6 6 6 5 5 5 4 3 2 2 2 3 4
3 1 3 5 6 5 8 7 10 14 15 15 13 8 7 10 12 12 11 9 8 7 6 6 5 4 5 5 6 6 7 6 6 5 5 5 4 3 2 1 2 2 3 3
3 3 6 5 4 2 1 6 10 12 12 10 6 9 13 13 12 11 10 9 8 7 6 5 5 4 5 6 6 6 6 6 5 4 3 4 3 2 2 2 2 1 2 2
4 4 6 7 5 6 8 11 12 12 12 13 16 17 16 14 13 11 10 9 8 7 6 5 4 5 6 6 5 5 5 5 3 2 2 4 2 1 1 2 1 0 1 2
7 7 8 9 10 11 12 13 13 13 15 17 17 16 15 13 12 11 11 9 7 7 7 5 4 5 6 5 4 4 4 4 3 2 3 2 2 2 1 2 3 3 3 3
8 9 10 11 12 13 12 13 14 15 16 16 16 16 14 12 11 10 9 8 7 8 7 6 5 5 5 4 4 3 3 2 2 1 1 1 2 3 4 5 5 5 5 4
11 11 11 11 12 13 14 14 15 16 16 15 16 15 13 11 11 9 9 7 7 7 7 7 5 5 5 4 3 2 1 0 1 1 2 2 4 4 5 5 4 4 5 5
7 11 10 12 13 15 14 15 15 16 15 15 14 14 13 11 9 9 8 8 7 7 7 7 6 5 5 4 3 2 1 0 1 1 1 2 4 5 7 5 4 4 3 3
12 13 15 15 15 14 14 15 15 15 15 14 13 13 12 11 9 9 9 9 8 7 7 6 5 5 4 3 2 1 0 1 1 1 0 1 3 4 5 3 1 1 3 4
15 17 18 16 15 15 16 16 15 15 15 14 12 12 11 11 10 10 9 8 7 7 6 5 4 4 4 3 1 0 1 1 2 1 0 1 1 1 2 3 3 3 4 7
15 15 16 17 16 16 16 16 16 15 14 14 12 12 11 11 10 9 8 8 6 5 5 5 5 3 2 2 2 0 1 1 1 1 1 2 1 1 2 2 2 2 2 3
15 17 18 17 17 17 16 16 15 15 14 13 12 12 11 10 10 9 7 7 5 4 4 4 3 2 2 2 1 2 1 1 2 2 1 2 2 2 3 3 2 2 2 3
17 18 18 18 17 16 16 15 14 14 14 13 13 12 11 11 9 8 7 6 5 5 4 3 2 0 1 2 2 3 4 4 3 2 1 2 3 3 3 3 2 2 3 3
16 17 17 17 16 16 16 15 15 15 14 14 13 12 11 10 9 8 7 6 5 4 3 3 3 3 2 2 2 3 1 3 3 2 3 4 3 3 3 3 3 3 2 1
17 17 17 17 16 15 15 15 15 14 14 13 13 11 10 9 8 7 6 5 5 5 4 5 2 3 1 2 3 4 1 2 3 4 4 3 1 3 3 3 3 2 2 3
18 18 18 17 16 16 15 15 15 14 13 13 12 11 10 9 8 7 5 3 3 5 6 5 4 4 1 2 2 5 1 2 4 4 3 3 3 3 3 3 2 2 2 2
18 18 19 17 17 16 16 15 15 14 13 13 12 11 9 8 8 6 5 5 6 6 5 5 4 2 1 1 3 5 2 4 4 3 3 3 3 3 2 2 1 1 1 2
18 17 18 17 16 15 15 14 14 14 13 12 12 11 10 8 7 6 3 4 7 5 4 4 3 5 4 3 6 2 4 4 3 3 3 3 3 3 2 2 1 1 2 2
16 16 17 17 16 15 15 14 14 14 13 12 12 11 10 8 6 6 6 6 7 5 2 4 6 5 2 4 6 1 5 4 3 3 3 3 3 3 2 2 1 1 2 2
16 16 16 16 15 16 15 14 14 12 12 12 11 10 9 7 5 4 6 8 8 6 4 7 5 2 2 5 6 1 4 4 3 3 4 3 3 3 3 2 2 2 2 2
16 16 16 16 15 13 14 14 14 13 13 10 11 11 9 6 6 7 8 9 9 7 6 7 6 5 5 7 4 1 3 3 3 2 3 2 2 3 3 2 2 1 2 3
14 13 12 12 10 10 12 12 11 11 11 10 10 10 8 6 7 8 7 10 11 7 6 7 8 8 8 7 2 4 5 5 4 3 2 2 2 2 3 2 2 1 2 3
14 12 10 11 11 11 11 11 11 12 11 11 11 10 9 8 8 9 9 9 9 8 7 8 9 9 8 4 4 4 4 4 4 4 3 3 2 3 3 3 2 2 2 2
Wind_Direction
263 262 247 320 338 6 32 36 59 97 124 134 132 129 126 124 121 115 111 107 103 99 96 93 91 90 91 93 95 97 98 97 97 98 97 96 93 90 86 83 84 77 72 69
255 217 115 44 30 45 52 62 93 103 95 118 119 122 128 131 130 125 121 116 111 107 105 102 99 98 97 95 97 100 101 101 102 103 102 100 96 86 78 67 62 60 60 63
239 191 159 58 40 55 58 57 87 94 110 122 121 128 136 136 131 127 126 122 116 110 106 106 107 108 108 111 112 111 110 111 109 105 101 98 93 86 79 73 67 57 60 77
297 43 65 72 64 82 78 68 81 98 109 111 110 105 106 117 122 123 124 120 116 112 112 110 110 111 114 119 119 117 111 108 104 97 92 87 81 77 73 67 64 63 61 80
354 66 106 97 64 65 89 85 100 111 114 115 113 102 94 109 118 122 123 121 122 125 124 123 128 131 130 126 119 112 106 101 98 97 93 87 80 75 69 60 50 75 71 78
321 36 88 82 65 80 106 100 117 126 132 138 140 119 123 127 124 124 124 127 132 134 132 133 138 141 134 121 112 106 101 95 90 85 84 78 70 56 49 26 31 49 64 70
351 85 84 51 48 2 35 120 133 132 138 144 129 112 130 132 129 130 131 135 140 141 138 139 140 133 117 108 105 103 101 97 93 96 109 97 72 38 7 18 28 32 62 89
8 72 72 21 51 61 93 115 122 122 120 114 110 117 127 131 133 136 139 143 145 139 133 134 132 125 113 107 108 106 105 102 97 78 57 92 78 22 353 338 329 80 73 76
49 78 81 66 82 98 109 115 119 121 121 123 124 129 133 135 138 141 142 142 144 137 129 125 123 113 110 108 105 104 102 98 93 79 60 46 15 14 9 5 9 26 40 46
106 104 100 97 100 102 107 113 118 122 126 128 129 133 136 138 141 143 143 145 145 139 133 129 122 113 118 114 102 103 107 122 141 133 118 88 42 32 41 28 18 16 29 29
111 121 114 105 107 109 111 114 116 120 126 130 133 135 137 137 138 141 141 140 138 132 130 130 132 131 127 118 117 118 124 159 170 138 120 101 82 52 53 62 49 27 19 11
148 149 134 124 120 119 120 121 122 125 127 131 133 134 135 133 134 135 135 132 130 131 132 134 133 129 122 119 122 130 163 257 271 181 160 150 137 112 63 93 104 76 47 9
115 127 123 125 124 124 124 124 125 126 128 130 131 132 130 129 131 131 129 131 132 132 132 132 134 132 124 120 111 96 357 341 315 333 132 148 144 150 152 149 175 286 293 306
116 121 127 130 128 126 125 124 124 125 127 128 129 129 128 129 131 131 131 134 135 134 135 138 133 126 128 136 139 220 279 219 276 308 9 79 70 100 138 162 173 186 224 251
131 132 131 130 128 128 130 130 130 130 130 130 131 132 132 133 132 130 131 131 132 137 138 136 128 124 133 144 156 252 322 26 5 360 46 81 61 48 77 72 79 118 162 201
134 132 133 136 137 139 140 141 138 137 137 136 136 135 135 134 131 131 132 134 140 132 118 111 119 143 167 165 196 201 133 54 329 316 82 89 73 55 59 63 63 66 69 50
144 145 147 147 147 147 147 145 142 142 142 141 140 140 140 138 136 137 137 128 117 109 113 117 101 130 186 175 247 244 177 164 210 255 80 70 64 64 64 64 59 52 65 59
152 151 151 151 150 149 148 145 144 145 145 145 145 147 147 147 146 140 132 128 133 131 122 106 65 343 352 38 340 315 170 163 166 120 93 70 48 60 65 70 63 49 65 126
151 150 151 151 151 149 147 146 146 146 146 148 149 150 151 148 142 142 143 158 161 149 126 101 94 273 284 70 322 279 246 126 115 101 98 114 120 78 72 67 59 41 31 28
150 151 151 151 152 149 147 146 146 147 150 152 152 153 153 148 147 149 156 153 110 117 130 134 200 231 213 149 260 284 101 102 108 111 111 117 102 91 83 74 66 50 36 26
151 153 154 155 152 150 150 149 149 151 153 156 156 156 152 151 157 158 180 153 122 120 128 145 228 233 95 60 247 267 135 108 110 112 116 113 107 101 91 78 70 69 47 19
153 155 157 154 153 151 150 151 153 155 156 160 160 157 155 162 166 164 168 117 131 134 182 186 158 76 57 324 282 259 119 115 117 119 123 126 123 119 112 108 90 71 48 23
155 156 156 155 154 152 152 156 158 159 162 165 164 163 166 175 178 176 156 141 148 160 210 97 107 101 29 285 275 231 114 119 128 137 143 148 141 136 133 129 112 81 51 37
154 156 155 154 154 156 159 162 160 161 166 168 167 167 171 181 187 168 123 125 126 148 147 125 145 141 280 270 274 196 134 147 166 171 157 153 148 148 144 145 126 104 90 70
155 156 156 158 160 162 163 162 161 166 172 174 170 172 183 194 178 146 138 144 147 163 160 165 187 206 247 265 261 138 105 97 78 69 117 124 152 144 135 135 123 116 96 87
156 159 159 164 163 163 165 167 170 173 178 177 174 177 186 186 167 144 147 159 169 193 197 175 188 210 235 248 198 120 125 145 164 187 151 163 154 129 125 124 134 112 102 99
160 158 160 168 170 172 173 174 176 179 183 181 177 178 184 181 174 168 170 171 175 191 210 197 193 203 217 213 148 142 159 165 165 167 168 176 164 162 153 161 167 149 166 141